Route Details

Aircraft Information
Group: Boeing 767
Types: B762, B763
Route Data
Distance: 2261nm
Duration: 6h 15m
Origin METAR: KONT 010553Z 06009KT 10SM CLR 12/M12 A3011 RMK AO2 SLP193 T01221122 10150 20122 53015
Dest. METAR: PHNL 010553Z 20003KT 10SM FEW033 FEW050 25/22 A2997 RMK AO2 SLP147 T02500222 10283 20250 52023
Freight Data
(for Feb 1, 2023)
Load Factor:
56%
Manifested Cargo: 58,741lbs
Financial History
Total Freight: 167,886lbs
Average Load: 0lbs/flt
Fuel Used: 89,636lbs
Avg. Fuel Used: 0lbs/flt
Fuel Expense: $48,403
Avg. Fuel Expense: $0
Avg. Fuel Cost: $0/lbs
Total Gross Income: $570,812
Pilot Pay: $457
Total Expenses: $113,518
Total Revenue: $403,128
Average Revenue: $0

Capitol Logistics 362




KONT
Ontario International Airport
Ontario, California
PHNL
Daniel K Inouye International Airport
Honolulu, Hawaii

Activity Log

Date Flight Route Aircraft Duration
07/15/2022 CPX362 POM1 GMN RZS DINTY R576 DIALO/N0464F340 R576 DENNS INOYI1 B763 5h 50m
07/15/2022 CPX362 POM1 GMN RZS DINTY R576 DIALO/N0458F340 R576 DENNS KAENA2 B763 6h 37m
07/11/2022 CPX362 POM1 GMN DCT RZS DCT DINTY R576 DENNS INOYI1 B763 6h 08m